Вернуться в каталог

THOR ABLESTAR DEB

АктивенLEO
NORAD 131·DEBRIS·🇺🇸 United States

Запущен Jun 29, 1961 с Cape Canaveral Space Force Station

Loading…

Ближайшие Пролёты (ближайшие 24 часа)

TLE

СвежийSource: Space-Track

Эпоха: Sep 14, 2026, 08:36 UTC

1 00131U 61015R   26257.35862095  .00000070  00000-0  95705-4 0  9995
2 00131  66.7329 241.2046 0079275   1.8870 358.2497 14.01811385315967

Отслеживайте THOR ABLESTAR DEB в реальном времени с AllMySat

Download on the App Store